Location: Krakow
(50.0830°N, 19.9170°E)
Time: 11:10:07
(UTC+01:00)

Transit 2A - Pass Details

Date: 09 February 2023
Orbit: 591 x 964 km, 66.7° (Epoch: 21 March)

Event Time Altitude Azimuth Distance (km) Brightness Sun altitude
Rises 00:55:28 0° 318° (NW) 3,517 - -52.6°
Reaches altitude 10° 00:58:06 10° 310° (NW) 2,616 - -52.5°
Maximum altitude 01:03:37 36° 247° (WSW) 1,470 - -52.1°
Drops below altitude 10° 01:09:18 10° 183° (S) 2,694 - -51.6°
Sets 01:12:04 0° 175° (S) 3,634 - -51.4°
